Tracking 25707 objects as of 30-Jun-2022
HD Live streaming from Space Station
objects crossing your sky now

ESTRELA DU SOL-TELSTAR14

Track ESTRELA DU SOL-TELSTAR14 now!
ESTRELA DU SOL-TELSTAR14 is classified as:


NORAD ID: 28137
Int'l Code: 2004-001A
Perigee: 36,162.0 km
Apogee: 36,242.6 km
Inclination: 8.1 °
Period: 1,457.0 minutes
Semi major axis: 42573 km
RCS: 12.5892 m2 (large)
Launch date: January 11, 2004
Source: United States/Brazil (USBZ)
Launch site: SEA LAUNCH (SEAL)

41 Ku-band transponders; direct-to-home video and internet to Brazil and North America.
aabbcc
Your satellite tracking list
Your tracking list is empty




NASA's NSSDC Master Catalog

Two Line Element Set (TLE):
1 28137U 04001A   22180.45380163 -.00000154  00000-0  00000-0 0  9990
2 28137   8.0998  55.4375 0009460  12.0867 314.2454  0.98831879 67266
Source of the keplerian elements: AFSPC